ASIASAT 5

Last updated on Sat Aug 15 2026 00:02:58 GMT+0000 (Coordinated Universal Time)

1 35696U 09042A 26226.58780140 -.00000322 00000+0 00000+0 0 9991 2 35696 0.0208 219.1174 0001399 268.7575 147.2164 1.00268510 62295
UTC large
Height (km)
Speed (km/s)
/
Latitude / Longitude
Inclination (degrees)
Orbital Period (minutes)
Azimuth
Elevation
Range (km)
Doppler Factor

Next 0 passes for location: London (51.5072 / 0.1276)

No passes found over London.
ASIASAT 5